• In Denmark
  • List of Countries
  • For 7 days
  • Water Temperature
  • Satellite Maps
  • Weather Map
  • Weather Widgets
  • user-avatar
    Login

    Hourly Weather Naftalan

    Today, 21 July, Saturday

    Time Temperature Precipitation Wind Pressure Humidity
    00:00 +29°C° 0 mm 3 mps 754 mmHg 69%
    01:00 +29°C° 0 mm 3 mps 754 mmHg 70%
    02:00 +28°C° 0 mm 4 mps 754 mmHg 70%
    03:00 +28°C° 0 mm 4 mps 754 mmHg 68%
    04:00 +29°C° 0 mm 4 mps 754 mmHg 65%
    05:00 +29°C° 0 mm 4 mps 755 mmHg 63%
    06:00 +30°C° 0 mm 3 mps 755 mmHg 60%
    07:00 +31°C° 0 mm 3 mps 755 mmHg 53%
    08:00 +34°C° 0 mm 4 mps 755 mmHg 47%
    09:00 +35°C° 0 mm 4 mps 756 mmHg 40%
    10:00 +37°C° 0 mm 4 mps 755 mmHg 37%
    11:00 +39°C° 0 mm 5 mps 755 mmHg 33%
    12:00 +40°C° 0 mm 6 mps 755 mmHg 29%
    13:00 +40°C° 0 mm 6 mps 755 mmHg 30%
    14:00 +40°C° 0 mm 7 mps 755 mmHg 30%
    15:00 +40°C° 0 mm 7 mps 755 mmHg 31%
    16:00 +38°C° 0 mm 7 mps 755 mmHg 35%
    17:00 +36°C° 0 mm 6 mps 755 mmHg 38%
    18:00 +34°C° 0 mm 6 mps 755 mmHg 42%
    19:00 +33°C° 0 mm 5 mps 755 mmHg 46%
    20:00 +32°C° 0 mm 4 mps 756 mmHg 50%
    21:00 +30°C° 0 mm 4 mps 756 mmHg 54%
    22:00 +30°C° 0 mm 3 mps 756 mmHg 55%
    23:00 +29°C° 0 mm 3 mps 756 mmHg 56%

    Tomorrow, 22 July, Sunday

    Time Temperature Precipitation Wind Pressure Humidity
    00:00 +29°C° 0 mm 3 mps 756 mmHg 58%
    01:00 +29°C° 0 mm 3 mps 756 mmHg 57%
    02:00 +29°C° 0 mm 3 mps 756 mmHg 56%
    03:00 +29°C° 0 mm 3 mps 756 mmHg 55%
    04:00 +29°C° 0 mm 3 mps 757 mmHg 53%
    05:00 +30°C° 0 mm 3 mps 757 mmHg 51%
    06:00 +30°C° 0 mm 3 mps 757 mmHg 49%
    07:00 +31°C° 0 mm 3 mps 757 mmHg 44%
    08:00 +34°C° 0 mm 3 mps 757 mmHg 39%
    09:00 +35°C° 0 mm 3 mps 758 mmHg 34%
    10:00 +37°C° 0 mm 3 mps 757 mmHg 31%
    11:00 +38°C° 0 mm 4 mps 757 mmHg 28%
    12:00 +40°C° 0 mm 5 mps 756 mmHg 25%
    13:00 +40°C° 0 mm 5 mps 756 mmHg 26%
    14:00 +40°C° 0 mm 5 mps 756 mmHg 27%
    15:00 +39°C° 0 mm 5 mps 755 mmHg 28%
    16:00 +37°C° 0 mm 5 mps 755 mmHg 31%
    17:00 +36°C° 0 mm 4 mps 755 mmHg 34%
    18:00 +35°C° 0 mm 4 mps 755 mmHg 37%
    19:00 +34°C° 0 mm 3 mps 755 mmHg 42%
    20:00 +31°C° 0 mm 3 mps 755 mmHg 47%
    21:00 +30°C° 0 mm 2 mps 755 mmHg 51%
    22:00 +30°C° 0 mm 2 mps 755 mmHg 52%
    23:00 +29°C° 0 mm 2 mps 755 mmHg 54%

    Day after tomorrow, 23 July, Monday

    Time Temperature Precipitation Wind Pressure Humidity
    00:00 +29°C° 0 mm 2 mps 755 mmHg 55%
    01:00 +28°C° 0 mm 2 mps 755 mmHg 56%
    02:00 +28°C° 0 mm 2 mps 755 mmHg 56%
    03:00 +28°C° 0 mm 3 mps 755 mmHg 57%
    04:00 +28°C° 0 mm 3 mps 755 mmHg 55%
    05:00 +29°C° 0 mm 3 mps 755 mmHg 53%
    06:00 +29°C° 0 mm 3 mps 755 mmHg 50%
    07:00 +31°C° 0 mm 3 mps 755 mmHg 45%
    08:00 +34°C° 0 mm 3 mps 755 mmHg 39%
    09:00 +36°C° 0 mm 3 mps 755 mmHg 33%
    10:00 +37°C° 0 mm 4 mps 755 mmHg 30%
    11:00 +38°C° 0 mm 4 mps 754 mmHg 28%
    12:00 +41°C° 0 mm 5 mps 754 mmHg 25%
    13:00 +41°C° 0 mm 5 mps 753 mmHg 25%
    14:00 +41°C° 0 mm 6 mps 753 mmHg 26%
    15:00 +41°C° 0 mm 7 mps 752 mmHg 26%
    16:00 +40°C° 0 mm 6 mps 752 mmHg 29%
    17:00 +38°C° 0 mm 6 mps 752 mmHg 31%
    18:00 +36°C° 0 mm 5 mps 752 mmHg 34%
    19:00 +35°C° 0 mm 5 mps 752 mmHg 37%
    20:00 +34°C° 0 mm 4 mps 753 mmHg 41%
    21:00 +33°C° 0 mm 3 mps 753 mmHg 45%
    22:00 +31°C° 0.1 mm 3 mps 753 mmHg 47%
    23:00 +30°C° 0.1 mm 3 mps 753 mmHg 50%

    24 July, Tuesday

    Time Temperature Precipitation Wind Pressure Humidity
    00:00 +29°C° 0.1 mm 2 mps 753 mmHg 52%
    01:00 +29°C° 0 mm 3 mps 753 mmHg 52%
    02:00 +29°C° 0 mm 3 mps 753 mmHg 51%
    03:00 +29°C° 0 mm 3 mps 753 mmHg 50%
    04:00 +29°C° 0 mm 3 mps 753 mmHg 48%
    05:00 +30°C° 0 mm 3 mps 754 mmHg 46%
    06:00 +31°C° 0 mm 3 mps 754 mmHg 44%
    07:00 +34°C° 0 mm 3 mps 754 mmHg 39%
    08:00 +35°C° 0 mm 3 mps 754 mmHg 34%
    09:00 +37°C° 0 mm 3 mps 754 mmHg 29%
    10:00 +39°C° 0 mm 3 mps 754 mmHg 27%
    11:00 +40°C° 0 mm 3 mps 754 mmHg 25%
    12:00 +42°C° 0 mm 3 mps 754 mmHg 23%
    13:00 +42°C° 0 mm 4 mps 753 mmHg 24%
    14:00 +42°C° 0 mm 5 mps 753 mmHg 25%
    15:00 +42°C° 0 mm 6 mps 753 mmHg 25%
    16:00 +40°C° 0 mm 5 mps 753 mmHg 30%
    17:00 +38°C° 0 mm 4 mps 754 mmHg 34%
    18:00 +36°C° 0 mm 4 mps 754 mmHg 38%
    19:00 +35°C° 0 mm 3 mps 755 mmHg 41%
    20:00 +34°C° 0 mm 3 mps 755 mmHg 44%
    21:00 +32°C° 0 mm 2 mps 756 mmHg 46%
    22:00 +31°C° 0 mm 2 mps 755 mmHg 47%
    23:00 +31°C° 0 mm 2 mps 755 mmHg 47%

    25 July, Wednesday

    Time Temperature Precipitation Wind Pressure Humidity
    00:00 +31°C° 0 mm 2 mps 755 mmHg 48%
    01:00 +30°C° 0 mm 2 mps 755 mmHg 49%
    02:00 +30°C° 0 mm 2 mps 755 mmHg 50%
    03:00 +30°C° 0 mm 2 mps 755 mmHg 51%
    04:00 +30°C° 0 mm 2 mps 755 mmHg 50%
    05:00 +31°C° 0 mm 2 mps 756 mmHg 49%
    06:00 +31°C° 0 mm 2 mps 756 mmHg 48%
    07:00 +34°C° 0 mm 2 mps 756 mmHg 43%
    08:00 +36°C° 0 mm 3 mps 756 mmHg 38%
    09:00 +38°C° 0 mm 3 mps 756 mmHg 33%
    10:00 +39°C° 0 mm 3 mps 756 mmHg 32%
    11:00 +41°C° 0 mm 4 mps 755 mmHg 30%
    12:00 +42°C° 0 mm 4 mps 755 mmHg 28%
    13:00 +42°C° 0 mm 4 mps 755 mmHg 28%
    14:00 +42°C° 0 mm 5 mps 754 mmHg 28%
    15:00 +43°C° 0 mm 5 mps 754 mmHg 28%
    16:00 +41°C° 0 mm 5 mps 754 mmHg 32%
    17:00 +39°C° 0 mm 5 mps 754 mmHg 36%
    18:00 +36°C° 0 mm 5 mps 754 mmHg 40%
    19:00 +35°C° 0 mm 4 mps 755 mmHg 45%
    20:00 +34°C° 0 mm 3 mps 755 mmHg 50%
    21:00 +31°C° 0 mm 3 mps 755 mmHg 55%
    22:00 +31°C° 0 mm 2 mps 755 mmHg 58%
    23:00 +30°C° 0 mm 1 mps 755 mmHg 60%

    26 July, Thursday

    Time Temperature Precipitation Wind Pressure Humidity
    00:00 +30°C° 0 mm 1 mps 755 mmHg 63%
    01:00 +30°C° 0 mm 1 mps 755 mmHg 64%
    02:00 +29°C° 0 mm 2 mps 755 mmHg 65%
    03:00 +29°C° 0 mm 2 mps 755 mmHg 66%
    04:00 +30°C° 0 mm 2 mps 755 mmHg 65%
    05:00 +30°C° 0 mm 2 mps 756 mmHg 64%
    06:00 +30°C° 0 mm 1 mps 756 mmHg 64%
    07:00 +32°C° 0 mm 1 mps 756 mmHg 58%
    08:00 +35°C° 0 mm 2 mps 756 mmHg 52%
    09:00 +37°C° 0 mm 2 mps 756 mmHg 46%
    10:00 +38°C° 0 mm 2 mps 756 mmHg 42%
    11:00 +39°C° 0 mm 3 mps 755 mmHg 38%
    12:00 +42°C° 0 mm 4 mps 755 mmHg 34%
    13:00 +42°C° 0 mm 4 mps 755 mmHg 33%
    14:00 +42°C° 0 mm 4 mps 755 mmHg 31%
    15:00 +42°C° 0 mm 5 mps 754 mmHg 30%
    16:00 +41°C° 0 mm 4 mps 754 mmHg 31%
    17:00 +38°C° 0 mm 4 mps 754 mmHg 33%
    18:00 +37°C° 0 mm 4 mps 754 mmHg 34%
    19:00 +36°C° 0 mm 3 mps 755 mmHg 39%
    20:00 +34°C° 0 mm 3 mps 755 mmHg 44%
    21:00 +32°C° 0 mm 2 mps 755 mmHg 49%
    22:00 +32°C° 0 mm 2 mps 755 mmHg 49%
    23:00 +32°C° 0 mm 2 mps 755 mmHg 50%
    Show more